Weather History for Selinsgrove, PA

Change the Weather History Date:

Tuesday, April 9, 2013

  Actual Average (KIPT) Record (KIPT)
Temperature  
Mean Temperature 65 °F 48 °F  
Max Temperature 82 °F 58 °F 81 °F (1991)
Min Temperature 48 °F 37 °F 22 °F (1977)
Degree Days  
Heating Degree Days 0 17  
Month to date heating degree days 171  
Since 1 July heating degree days 5467  
Cooling Degree Days 0 0  
Month to date cooling degree days 0  
Year to date cooling degree days 0  
Growing Degree Days 15 (Base 50)    
Moisture  
Dew Point 46 °F    
Average Humidity 49    
Maximum Humidity 83    
Minimum Humidity 25    
Precipitation  
Precipitation 0.00 in 0.11 in 1.92 in (1980)
Month to date precipitation 1.01  
Year to date precipitation 9.02  
Snow  
Snow 0.00 in - - ()
Month to date snowfall  
Since 1 July snowfall  
Snow Depth -    
Sea Level Pressure  
Sea Level Pressure 29.96 in    
Wind  
Wind Speed 4 mph (WSW)    
Max Wind Speed 14 mph    
Max Gust Speed 21 mph    
Visibility 10 miles    
Events      
T = Trace of Precipitation, MM = Missing Value Source: NWS Daily Summary

Daily Weather History Graph

Daily Weather History Graph

Search for Another Location

Airport:

Trip Planner

Search our weather history database for the weather conditions in past years. The results will help you decide how hot, cold, wet, or windy it might be!

Date:

Astronomy

Apr. 09, 2013 Rise Set
Actual Time 6:37 AM EDT 7:40 PM EDT
Civil Twilight 6:09 AM EDT 8:09 PM EDT
Nautical Twilight 5:36 AM EDT 8:42 PM EDT
Astronomical Twilight 5:01 AM EDT 9:17 PM EDT
Moon 5:59 AM EDT (4/9) 7:14 PM EDT (4/9)
Length of Visible Light 13h 59m
Length of Day
13h 03m
Waning Crescent, 1% of the Moon is Illuminated
Apr 9
Waning Crescent
Apr 10
New
Apr 18
First Quarter
Apr 25
Full
May 2
Last Quarter

Hourly Weather History & Observations

Time (EDT) Temp. Dew Point Humidity Pressure Visibility Wind Dir Wind Speed Gust Speed Precip Events Conditions
12:53 AM 64.0 °F 45.0 °F 50% 29.91 in 10.0 mi SW 3.5 mph - N/A   Clear
1:53 AM 62.1 °F 46.0 °F 56% 29.91 in 10.0 mi SSW 4.6 mph - N/A   Partly Cloudy
2:53 AM 57.0 °F 46.9 °F 69% 29.92 in 10.0 mi SW 4.6 mph - N/A   Clear
3:53 AM 55.9 °F 46.0 °F 69% 29.94 in 10.0 mi Calm Calm - N/A   Scattered Clouds
4:53 AM 52.0 °F 46.0 °F 80% 29.95 in 10.0 mi Calm Calm - N/A   Scattered Clouds
5:53 AM 51.1 °F 45.0 °F 80% 29.97 in 10.0 mi Calm Calm - N/A   Partly Cloudy
6:53 AM 48.9 °F 44.1 °F 83% 30.00 in 10.0 mi Calm Calm - N/A   Partly Cloudy
7:53 AM 55.0 °F 48.9 °F 80% 30.02 in 10.0 mi Calm Calm - N/A   Partly Cloudy
8:53 AM 69.1 °F 51.1 °F 53% 30.03 in 10.0 mi West 10.4 mph - N/A   Clear
9:53 AM 71.1 °F 45.0 °F 39% 30.04 in 10.0 mi WNW 11.5 mph 19.6 mph N/A   Clear
10:53 AM 73.0 °F 44.1 °F 35% 30.05 in 10.0 mi WNW 13.8 mph 20.7 mph N/A   Clear
11:53 AM 73.9 °F 43.0 °F 33% 30.04 in 10.0 mi WNW 9.2 mph 16.1 mph N/A   Clear
12:53 PM 73.9 °F 42.1 °F 32% 30.02 in 10.0 mi Variable 5.8 mph - N/A   Clear
1:53 PM 78.1 °F 42.1 °F 28% 30.00 in 10.0 mi Variable 3.5 mph - N/A   Clear
2:53 PM 79.0 °F 43.0 °F 28% 29.97 in 10.0 mi Variable 3.5 mph - N/A   Clear
3:53 PM 81.0 °F 42.1 °F 25% 29.94 in 10.0 mi West 5.8 mph - N/A   Clear
4:53 PM 82.0 °F 43.0 °F 25% 29.93 in 10.0 mi Variable 3.5 mph - N/A   Clear
5:53 PM 80.1 °F 45.0 °F 29% 29.93 in 10.0 mi SSW 10.4 mph - N/A   Partly Cloudy
6:53 PM 79.0 °F 46.9 °F 32% 29.92 in 10.0 mi SW 4.6 mph - N/A   Overcast
7:53 PM 77.0 °F 48.0 °F 36% 29.93 in 10.0 mi Calm Calm - N/A   Overcast
8:53 PM 72.0 °F 51.1 °F 48% 29.92 in 10.0 mi Calm Calm - N/A   Partly Cloudy
9:53 PM 70.0 °F 51.1 °F 51% 29.89 in 10.0 mi SSW 3.5 mph - N/A   Clear
10:53 PM 69.1 °F 51.1 °F 53% 29.88 in 10.0 mi Calm Calm - N/A   Clear
11:53 PM 66.9 °F 52.0 °F 59% 29.86 in 10.0 mi South 3.5 mph - N/A   Clear